Simultaneous Nadir Overpasses (SNOs) Predictions

Prediction of SNOs between AQUA and NOAA-19 Satellite Orbit:

Table of predicted SNOs for the next 14.0 days since TLE Epoch: 11/9/2012
Index Date (AQUA) Time (AQUA) AQUA Lat,Lon Date (NOAA-19) Time (NOAA-19) NOAA-19 Lat,Lon Distance(km) Time Diff (sec)
1 11/11/2012 12:28:23 -46.61, 25.43 11/11/2012 12:28:33 -46.52, 25.81 30.47 10
2 11/11/2012 13:02:53 76.07, -27.26 11/11/2012 13:04:05 75.57, -29.65 85.17 72
3 11/13/2012 17:13:22 -46.01, -45.99 11/13/2012 17:13:16 -45.91, -45.56 35.40 6
4 11/13/2012 17:55:49 70.19, 138.33 11/13/2012 17:57:02 70.00, 139.53 50.67 73
5 11/15/2012 21:58:28 -46.02,-117.27 11/15/2012 21:57:48 -45.92,-116.68 46.50 40
6 11/15/2012 22:46:59 49.17, 51.61 11/15/2012 22:47:52 49.09, 51.90 22.60 53
7 11/18/2012 03:33:11 46.28, -20.87 11/18/2012 03:33:15 46.21, -20.44 33.70 4
8 11/18/2012 04:08:57 -79.50, -89.21 11/18/2012 04:10:10 -78.93, -91.56 80.54 73
9 11/20/2012 08:18:55 46.06, -92.37 11/20/2012 08:17:52 45.95, -91.68 55.17 63
10 11/20/2012 09:07:59 -47.68, 75.86 11/20/2012 09:08:27 -47.63, 76.24 28.88 28
11 11/22/2012 13:54:24 -46.05, 3.75 11/22/2012 13:53:28 -45.95, 4.43 53.70 56




NCC Satellite Simultaneous Nadir Overpasses (SNOs) Prediction Service
